Regional Weather Roundup
Issued by NWS

Home | Current Version | Previous Version | Graphics & Text | Print | Product List | Glossary On
Versions: 1 2 3 4 5 6 7 8 9 10 11 12 13 14 15 16 17 18 19 20 21 22 23 24 25 26 27 28 29 30 31 32 33 34 35 36 37 38 39 40 41 42 43 44 45 46 47 48 49 50
801
ASUS45 KSLC 010810
RWRUT

UTAH REGIONAL WEATHER ROUNDUP
NATIONAL WEATHER SERVICE SALT LAKE CITY UT
200 AM MDT SUN MAY 01 2016

UTZ001>011-023>025-010900-

NORTHERN UTAH

CITY           SKY/WX    TMP DP  RH WIND       PRES   REMARKS
BRIGHAM CITY   CLOUDY    50  22  32 E25G55    30.08F
HILL AFB       CLOUDY    46  23  39 NE17G31   30.01R
LOGAN          CLOUDY    47  27  45 SE20G41   30.13R
OGDEN          CLOUDY    47  26  44 NW17G29   30.00F
PROVO AIRPORT  MOCLDY    48  25  40 SE10      30.01F
SALT LAKE CITY CLOUDY    51  25  36 E20G25    30.02R
VERNAL         CLOUDY    42  22  44 NE22      30.11S
WENDOVER       CLOUDY    48  37  66 N21       30.06S
HEBER CITY     CLOUDY    37  32  81 CALM      30.04S

$$

UTZ012>022-026-027-010900-

SOUTHERN/CENTRAL UTAH

CITY           SKY/WX    TMP DP  RH WIND       PRES   REMARKS
BLANDING       PTCLDY    37  29  73 NW7       29.96S WCI  31
BRYCE CANYON   CLEAR     32  25  75 N8        29.97S WCI  25
CEDAR CITY     CLOUDY    37  35  92 W3        29.93S
DELTA          PTCLDY    45  30  57 NE12      29.96S
HANKSVILLE     PTCLDY    41  34  75 CALM      30.00R
MILFORD        PTCLDY    40  36  86 N10       29.94S WCI  33
MOAB/CYNLANDS  CLEAR     41  32  70 W7        29.95R
PRICE          PTCLDY    40  23  50 NE25G31   30.03S WCI  29
ST GEORGE      CLOUDY    54  39  58 E9        29.88S
KANAB          CLEAR     43  37  81 N9        29.93S

$$

REGIONAL REPORTS     COLORADO/ARIZONA

CITY           SKY/WX    TMP DP  RH WIND       PRES   REMARKS
CRAIG, CO      CLOUDY    34  23  64 E7        30.11S WCI  28
GRAND JUNCTION CLOUDY    46  27  47 NW7       29.96R
RIFLE          CLOUDY    39  31  72 CALM      30.02R
MONTROSE       CLOUDY    35  29  78 S7        29.99S WCI  29
CORTEZ         CLOUDY    34  31  88 NE6       29.91S WCI  29
PAGE, AZ       CLOUDY    50  43  77 CALM      29.88R
GRAND CANYON   CLOUDY    41  36  82 NE12      29.90S
KINGMAN        MOCLDY    48  44  86 NE7       29.84R
FLAGSTAFF      LGT SNOW  32  32 100 E3        29.88F FOG

$$

REGIONAL REPORTS    NEVADA/IDAHO/WYOMING

CITY           SKY/WX    TMP DP  RH WIND       PRES   REMARKS
LAS VEGAS, NV  MOCLDY    57  49  74 S6        29.80R
ELY            LGT RAIN  38  35  89 NE13      30.04S WCI  30
ELKO           PTCLDY    44  35  70 VRB3      30.06F
POCATELLO, ID  CLOUDY    42  37  82 CALM      30.14R
BURLEY         CLOUDY    48  44  86 N3        30.10S
EVANSTON, WY   CLOUDY    32  24  72 E22G35    30.14S WCI  19
ROCK SPRINGS   CLOUDY    33  27  78 NE16      30.20S WCI  23

$$




USA.gov is the U.S. government's official web portal to all federal, state and local government web resources and services.